CAPE
0 0 0 0 0 0 0 0 0 0 0 0 0 0 0 0 0 0 0 0 0 0 1 1 0 2 6 0 4 2 1 4 1 0 0 0 1 1 1 1 1 1 0
0 0 0 0 0 0 0 0 0 0 0 0 0 0 0 0 0 0 0 0 0 0 0 0 0 0 1 2 0 6 4 9 9 0 0 0 1 1 1 1 1 1 1
0 0 0 0 0 0 0 0 0 0 0 0 0 0 0 0 0 0 0 0 0 0 0 0 0 0 1 1 0 1 0 5 3 0 0 2 1 1 1 1 1 1 1
0 0 0 0 0 0 0 0 0 0 0 0 0 0 0 0 0 0 0 0 0 0 0 0 0 1 0 2 0 3 3 10 0 11 0 0 1 0 1 1 1 1 1
0 0 0 0 0 0 0 0 0 0 0 0 0 0 1 0 1 0 0 0 0 0 0 0 1 0 1 0 1 1 1 7 0 0 1 0 0 0 0 0 0 1 0
0 0 0 0 0 0 0 0 0 0 0 0 0 0 0 0 0 1 1 0 0 0 1 0 0 0 0 0 0 0 0 0 0 0 0 1 0 0 0 0 1 1 1
0 0 0 0 0 0 0 0 0 0 0 0 0 0 0 0 1 1 1 0 0 0 0 0 0 1 1 1 0 0 0 0 0 0 0 0 0 0 0 1 1 0 0
0 0 0 0 0 0 0 0 0 0 0 0 0 0 0 0 1 0 1 0 0 0 0 0 0 0 0 1 2 0 0 0 1 0 0 0 0 0 0 0 0 0 0
0 0 0 0 0 0 0 0 0 0 0 0 0 0 0 0 1 0 0 0 0 0 0 0 0 0 0 0 2 2 2 0 0 0 0 0 0 0 0 0 0 0 2
0 0 0 0 0 0 0 0 0 0 0 0 0 0 0 0 0 0 0 0 0 0 0 0 0 0 1 0 1 2 0 0 0 0 0 0 0 0 0 0 0 0 1
0 0 0 0 0 0 0 0 0 0 0 0 0 0 0 0 0 0 0 0 0 0 0 0 0 0 0 0 0 1 0 2 2 1 0 0 0 0 0 1 0 0 2
0 0 0 0 0 0 0 0 0 0 0 0 0 0 0 0 0 0 0 0 0 0 0 0 0 0 1 1 0 0 0 0 1 1 0 0 0 0 1 0 0 0 0
0 0 0 0 0 0 0 0 0 0 1 0 0 0 0 0 0 0 0 0 1 0 1 0 0 0 1 0 0 0 0 1 0 0 0 0 0 0 0 0 0 0 0
0 0 0 0 0 0 0 0 0 0 0 3 0 0 0 0 0 0 0 0 0 0 0 0 0 0 0 0 0 0 0 2 1 2 1 0 0 0 1 1 1 1 0
0 0 0 0 0 0 0 0 0 0 0 1 0 0 0 0 0 0 0 0 0 0 0 0 0 0 0 0 0 1 0 0 1 2 1 0 0 0 2 1 1 1 1
0 0 0 0 0 0 0 0 0 0 0 0 0 0 0 0 0 0 2 1 1 0 0 0 0 0 0 1 2 0 1 0 0 0 1 0 1 2 2 1 1 1 1
0 0 0 0 0 0 0 0 0 0 0 0 0 0 0 0 0 0 0 1 0 0 0 0 1 1 0 0 1 0 1 0 0 0 0 1 2 2 2 3 2 1 0
0 0 0 0 0 0 0 0 0 0 0 0 0 0 0 0 0 0 0 1 0 0 0 0 1 0 0 0 0 0 1 0 0 0 0 1 1 2 2 1 1 1 1
0 0 0 0 0 0 0 0 0 0 0 0 0 0 0 0 0 0 0 0 0 0 0 2 1 1 0 1 0 0 1 1 0 0 0 0 0 1 1 1 1 0 1
0 0 0 0 0 0 0 0 0 0 0 0 0 0 0 0 0 0 0 1 0 0 3 4 3 0 0 1 0 0 0 0 0 0 0 0 1 1 1 0 0 0 1
0 0 0 0 0 0 0 0 0 0 0 0 0 0 0 0 0 0 0 0 0 1 1 4 5 1 1 0 0 0 0 0 0 0 0 0 0 0 0 0 0 0 0
0 0 0 0 0 0 0 0 0 0 0 0 0 0 0 0 0 0 0 0 0 0 0 1 1 0 1 1 0 1 0 0 0 0 0 0 0 0 0 0 0 0 0
0 0 0 0 0 0 0 0 0 0 0 0 0 0 0 0 0 0 0 0 0 0 0 1 1 3 0 1 0 0 1 0 0 0 0 0 0 0 0 0 0 0 0
0 0 0 0 0 0 0 0 0 0 0 0 0 0 0 0 0 0 0 0 0 0 0 0 0 1 1 0 0 1 0 1 1 0 0 0 0 0 0 0 0 0 0
0 0 0 0 0 0 0 0 0 0 0 0 0 0 0 0 0 0 0 0 0 0 0 0 0 0 0 1 0 0 0 0 0 0 0 0 0 0 0 0 0 0 0
0 0 0 0 0 0 0 0 0 0 0 0 0 0 0 0 0 0 0 0 0 0 0 0 0 0 0 1 0 0 0 0 1 0 0 0 0 0 0 0 0 0 0
CIN
-0 -0 -0 -0 -0 -0 -0 -0 -0 -0 -0 -0 -0 -0 -0 -0 -0 -0 -0 -0 -0 -0 -0 -0 -0 -10 -31 -0 -3 -1 -12 -7 -0 -0 -0 -0 -0 -0 -0 -0 -0 -0 -0
-0 -0 -0 -0 -0 -0 -0 -0 -0 -0 -0 -0 -0 -0 -0 -0 -0 -0 -0 -0 -0 -0 -0 -0 -0 -0 -0 -39 -0 -1 -4 -7 -10 -0 -0 -0 -0 -0 -0 -0 -0 -0 -0
-0 -0 -0 -0 -0 -0 -0 -0 -0 -0 -0 -0 -0 -0 -0 -0 -0 -0 -0 -0 -0 -0 -0 -0 -0 -0 -0 -0 -0 -0 -1 -13 -21 -0 -0 -0 -0 -0 -0 -0 -0 -0 -0
-0 -0 -0 -0 -0 -0 -0 -0 -0 -0 -0 -0 -0 -0 -0 -0 -1 -0 -0 -0 -0 -0 -0 -0 -0 -0 -0 -0 -0 -15 -0 -10 -0 -20 -12 -0 -0 -0 -0 -0 -0 -0 -0
-0 -0 -0 -0 -0 -0 -0 -0 -0 -0 -0 -1 -0 -0 -1 -0 -0 -2 -3 -0 -0 -0 -0 -0 -0 -0 -0 -0 -0 -0 -0 -2 -0 -5 -24 -0 -0 -0 -0 -0 -0 -0 -0
-0 -0 -0 -0 -0 -0 -0 -1 -0 -0 -0 -0 -1 -0 -0 -0 -2 -3 -4 -0 -0 -0 -0 -0 -0 -0 -0 -0 -0 -0 -0 -0 -0 -0 -0 -0 -0 -0 -0 -0 -0 -0 -0
-0 -0 -0 -0 -0 -0 -0 -0 -0 -0 -0 -0 -1 -0 -0 -0 -2 -4 -3 -0 -0 -0 -0 -0 -0 -0 -0 -0 -0 -0 -0 -0 -0 -0 -0 -0 -0 -0 -0 -0 -0 -0 -0
-0 -0 -0 -0 -0 -0 -0 -0 -0 -0 -0 -0 -0 -0 -0 -0 -2 -6 -5 -0 -0 -0 -0 -0 -0 -0 -0 -0 -0 -0 -0 -0 -0 -0 -0 -0 -0 -0 -0 -0 -0 -0 -0
-0 -0 -0 -0 -0 -0 -0 -0 -2 -0 -0 -0 -0 -0 -0 -0 -2 -6 -2 -3 -0 -0 -0 -0 -0 -0 -0 -0 -0 -0 -0 -0 -0 -0 -0 -0 -0 -0 -0 -0 -0 -0 -0
-0 -0 -0 -0 -0 -0 -0 -0 -2 -0 -0 -0 -0 -0 -0 -0 -0 -0 -4 -0 -0 -0 -0 -0 -0 -0 -0 -0 -0 -0 -0 -0 -0 -0 -0 -0 -0 -0 -0 -0 -0 -0 -0
-0 -0 -0 -0 -0 -0 -0 -0 -0 -0 -0 -0 -0 -0 -0 -0 -0 -2 -1 -1 -0 -0 -0 -0 -0 -0 -0 -0 -0 -0 -0 -0 -0 -0 -0 -0 -0 -0 -0 -0 -0 -0 -0
-0 -0 -0 -0 -0 -0 -0 -0 -0 -0 -0 -0 -0 -0 -0 -0 -0 -0 -2 -0 -0 -0 -0 -0 -0 -0 -0 -0 -0 -0 -0 -0 -0 -0 -0 -0 -0 -0 -0 -0 -0 -0 -0
-0 -0 -0 -0 -0 -0 -0 -0 -0 -0 -1 -0 -0 -1 -4 -9 -6 -0 -0 -0 -0 -0 -0 -0 -0 -0 -0 -0 -0 -0 -0 -0 -0 -0 -0 -0 -0 -0 -0 -0 -0 -0 -0
-0 -0 -0 -0 -0 -0 -0 -0 -0 -0 -0 -1 -0 -0 -4 -0 -0 -0 -2 -0 -0 -0 -0 -0 -0 -0 -0 -0 -0 -0 -0 -0 -0 -0 -0 -0 -0 -0 -0 -0 -0 -0 -0
-0 -0 -0 -0 -0 -0 -0 -0 -0 -0 -0 -3 -0 -0 -2 -0 -0 -5 -5 -2 -0 -3 -0 -0 -1 -0 -0 -0 -0 -0 -0 -0 -0 -0 -0 -0 -0 -0 -0 -0 -0 -0 -0
-0 -0 -0 -0 -0 -0 -0 -0 -0 -0 -0 -3 -0 -0 -0 -0 -0 -16 -15 -6 -6 -4 -0 -0 -0 -0 -0 -0 -0 -0 -0 -0 -0 -0 -0 -0 -0 -0 -0 -0 -0 -0 -0
-0 -0 -0 -0 -0 -0 -0 -0 -0 -0 -0 -0 -0 -0 -2 -0 -0 -0 -0 -4 -0 -0 -0 -0 -0 -0 -0 -0 -0 -0 -0 -0 -0 -0 -0 -0 -0 -0 -0 -0 -0 -0 -0
-0 -0 -0 -0 -0 -0 -0 -0 -0 -0 -0 -0 -0 -0 -0 -0 -0 -0 -0 -12 -15 -0 -0 -0 -0 -0 -0 -0 -0 -0 -0 -0 -0 -0 -0 -0 -0 -0 -0 -0 -0 -0 -0
-0 -0 -0 -0 -0 -0 -0 -0 -0 -0 -0 -0 -0 -0 -0 -0 -0 -0 -0 -0 -1 -3 -8 -6 -1 -0 -0 -0 -0 -0 -0 -0 -0 -0 -0 -0 -0 -0 -0 -0 -0 -0 -0
-0 -0 -0 -0 -0 -0 -0 -0 -0 -0 -0 -0 -0 -0 -0 -0 -0 -0 -0 -0 -0 -0 -3 -2 -2 -1 -2 -0 -0 -0 -0 -0 -0 -0 -0 -0 -0 -0 -0 -0 -0 -0 -0
-0 -0 -0 -0 -0 -0 -0 -0 -0 -0 -0 -0 -0 -0 -0 -0 -0 -0 -0 -0 -0 -0 -0 -3 -1 -1 -0 -0 -0 -0 -0 -0 -0 -0 -0 -0 -0 -0 -0 -0 -0 -0 -0
-0 -0 -0 -0 -0 -0 -0 -0 -0 -0 -0 -0 -0 -0 -0 -0 -0 -0 -0 -0 -0 -0 -0 -0 -0 -2 -2 -0 -0 -0 -0 -0 -0 -0 -0 -0 -0 -0 -0 -0 -0 -0 -0
-0 -0 -0 -0 -0 -0 -0 -0 -0 -0 -0 -0 -0 -0 -0 -0 -0 -0 -0 -0 -0 -0 -0 -0 -0 -0 -0 -0 -0 -0 -0 -0 -0 -0 -0 -0 -0 -0 -0 -0 -0 -0 -0
-0 -0 -0 -0 -0 -0 -0 -0 -0 -0 -0 -0 -0 -0 -0 -0 -0 -0 -0 -0 -0 -0 -0 -0 -0 -0 -0 -0 -0 -0 -0 -0 -0 -0 -0 -0 -0 -0 -0 -0 -0 -0 -0
-0 -0 -0 -0 -0 -0 -0 -0 -0 -0 -0 -0 -0 -0 -0 -0 -0 -0 -0 -0 -0 -0 -0 -0 -0 -0 -0 -0 -0 -0 -0 -0 -0 -0 -0 -0 -0 -0 -0 -0 -0 -0 -0
-0 -0 -0 -0 -2 -0 -0 -0 -0 -0 -0 -0 -0 -0 -0 -0 -0 -0 -0 -0 -0 -0 -0 -0 -0 -0 -0 -0 -0 -0 -0 -0 -0 -0 -0 -0 -0 -0 -0 -0 -0 -0 -0
Wind_Speed
37 39 39 36 34 31 28 29 28 28 30 31 32 33 34 35 33 35 33 32 35 35 33 36 37 35 39 37 40 43 40 37 41 37 38 40 37 37 38 38 37 36 35
35 36 35 32 29 27 25 25 26 26 27 30 32 33 33 33 29 27 28 29 34 36 36 36 39 39 38 34 37 39 40 34 34 39 36 38 38 37 37 38 39 37 36
32 32 32 30 27 24 23 23 26 27 28 31 32 33 33 32 25 26 24 22 32 34 34 35 36 36 39 37 34 36 34 31 30 29 36 31 35 36 40 40 38 39 37
28 29 30 28 25 23 23 25 29 29 30 33 33 31 30 30 24 26 23 17 13 28 33 32 33 33 34 33 31 36 33 32 28 28 31 32 34 34 41 40 39 38 39
27 26 26 25 23 23 24 28 30 31 32 32 32 29 30 29 26 28 26 22 17 10 6 30 30 31 31 30 30 30 32 31 25 27 30 27 29 32 34 38 39 38 38
26 26 25 25 25 25 27 30 31 31 31 30 30 31 31 29 30 29 25 22 20 21 18 12 11 30 31 31 29 28 26 25 24 20 22 27 24 26 27 32 35 36 37
26 26 26 25 26 26 27 29 29 29 29 30 30 31 30 31 31 31 30 27 23 22 23 28 30 30 31 30 31 29 28 27 31 26 24 24 21 21 19 27 34 38 37
27 27 26 25 26 26 26 28 28 29 29 30 30 30 30 31 31 30 30 28 29 28 29 29 31 32 32 31 30 28 29 29 27 31 25 25 19 19 18 19 27 31 32
28 27 25 24 26 26 27 27 28 29 30 30 30 32 31 32 31 31 30 29 29 30 29 27 30 33 33 33 31 31 31 30 27 29 30 29 22 23 21 16 23 25 31
28 26 23 23 25 26 27 28 28 29 30 30 30 31 32 32 31 31 31 30 31 31 30 29 31 30 33 34 34 34 34 31 31 32 30 31 30 23 20 20 20 25 28
27 26 23 23 25 25 26 26 28 30 30 30 30 31 31 31 31 31 31 31 32 32 34 35 31 33 36 37 36 36 35 35 35 35 34 32 27 26 27 26 23 23 27
27 25 24 24 25 25 26 27 28 29 30 31 31 31 31 31 31 31 32 32 33 34 34 34 35 38 38 40 39 36 37 36 37 38 36 36 30 26 26 29 28 29 25
28 25 24 25 25 24 26 28 29 28 30 31 32 33 32 31 32 32 32 33 34 34 34 36 37 38 39 36 35 38 38 37 38 40 39 37 36 32 29 27 29 31 29
23 21 21 20 23 24 25 27 28 30 31 31 32 33 33 33 33 33 33 34 34 35 35 36 36 36 35 34 36 37 37 37 38 40 39 37 31 28 33 28 32 31 30
27 22 20 20 19 23 26 26 27 28 29 31 32 33 34 35 35 35 35 35 35 35 36 35 36 36 36 36 35 36 38 39 40 39 38 37 35 34 34 31 32 32 32
36 27 26 22 21 24 25 24 26 28 29 29 30 32 32 34 35 35 35 35 35 35 34 35 36 37 37 37 37 37 37 35 35 37 39 37 35 34 35 34 34 34 35
35 33 29 26 29 23 22 25 30 28 30 27 30 31 33 35 35 36 36 35 33 33 33 35 36 37 37 36 36 37 37 34 33 33 36 34 33 34 34 33 34 34 35
36 33 31 31 31 29 29 28 27 29 31 29 28 30 31 34 34 36 36 35 33 31 33 35 36 36 37 38 36 38 36 33 31 28 31 33 32 32 33 33 31 32 34
37 37 35 35 33 31 32 31 30 27 26 28 28 28 29 31 32 34 33 33 34 33 34 35 35 37 37 37 36 38 35 32 30 28 27 28 28 29 30 29 30 31 30
36 36 37 37 36 36 35 34 32 29 29 29 31 30 31 30 33 33 33 34 34 34 35 35 36 36 36 36 35 37 34 32 29 27 25 24 25 25 27 28 29 30 32
36 37 38 38 38 35 35 34 33 33 34 33 35 32 33 33 35 35 35 34 34 36 36 37 37 36 36 35 35 36 34 31 29 28 26 24 24 25 28 28 28 30 31
37 37 37 37 37 36 37 37 38 38 38 39 38 37 37 37 38 38 37 36 37 36 37 37 38 36 36 35 35 36 34 32 31 30 28 26 25 26 25 23 25 27 31
40 40 39 38 38 39 40 40 41 42 43 44 43 43 42 42 41 40 40 39 38 37 38 37 37 38 36 35 35 35 34 32 31 30 29 27 26 25 23 22 21 21 24
36 37 38 38 38 37 38 40 40 41 42 44 44 45 44 44 43 43 40 40 40 39 39 37 38 39 38 37 36 35 34 32 31 31 30 28 27 24 23 24 22 22 20
35 35 36 36 36 37 38 39 39 39 39 40 41 41 41 42 44 43 42 41 41 40 39 39 39 39 39 39 38 37 35 33 32 31 30 27 25 22 22 23 23 23 22
35 34 34 34 33 32 34 37 38 38 38 37 37 37 37 37 38 40 41 41 40 40 40 39 39 40 39 39 38 37 35 33 32 31 30 27 23 20 20 20 21 24 24
Wind_Direction
335 336 337 338 340 342 345 347 349 348 347 344 348 346 344 341 344 340 343 343 323 313 302 289 289 291 287 292 285 277 277 278 256 250 249 242 229 227 223 215 213 208 207
336 337 339 342 344 343 343 345 345 342 345 339 342 342 344 347 357 2 357 353 333 310 300 298 287 288 291 295 287 286 276 276 274 253 249 241 233 224 218 212 217 213 212
337 339 342 344 344 344 344 342 339 335 333 333 338 337 339 345 355 355 0 4 348 323 311 306 297 296 288 291 291 287 279 270 268 267 252 244 238 230 225 215 217 215 213
339 341 342 342 342 340 337 330 320 325 326 329 334 338 340 343 351 352 359 7 13 336 315 307 308 301 294 296 292 283 276 270 268 263 256 246 239 236 230 224 219 218 215
336 338 340 342 341 339 329 318 316 319 321 326 331 338 335 339 345 344 351 3 10 16 282 313 308 301 298 289 288 290 289 271 267 261 257 254 247 237 230 228 223 221 217
333 333 336 339 338 334 323 315 315 318 320 324 326 321 324 333 335 337 351 3 8 8 13 23 25 315 306 298 291 285 297 284 277 271 267 256 251 237 235 226 223 217 218
329 329 331 333 333 331 325 316 317 319 320 321 324 317 326 325 325 323 327 342 358 2 2 351 338 332 324 313 301 288 286 279 263 262 268 257 252 239 236 228 224 218 219
322 324 325 326 327 327 323 315 315 316 319 319 318 320 323 320 317 319 325 332 332 339 342 344 336 329 320 323 302 287 281 274 270 258 261 262 255 240 220 221 223 227 227
316 318 319 320 322 321 318 317 313 313 313 316 316 313 316 316 316 316 318 324 329 333 338 349 339 327 321 316 315 292 285 281 277 271 260 257 254 245 237 231 227 217 221
308 312 314 315 316 315 313 311 311 311 311 313 314 312 314 315 317 314 316 320 321 324 331 339 340 339 326 318 309 303 291 287 284 276 268 258 252 249 231 224 220 219 218
303 307 309 311 311 310 309 308 309 307 308 310 311 311 313 313 315 314 313 314 316 320 319 323 336 334 328 314 307 299 293 290 278 272 264 257 255 246 237 233 225 218 221
300 298 302 307 309 307 305 306 306 306 303 305 304 307 310 311 312 314 312 313 314 314 315 321 324 319 324 318 309 301 292 286 279 270 264 255 251 244 240 238 236 233 226
297 292 295 303 307 305 303 302 303 304 302 301 301 302 305 310 311 312 314 312 312 313 313 316 318 322 319 327 322 305 296 286 276 268 262 258 252 248 242 240 238 237 237
288 287 292 299 305 305 302 300 300 301 299 299 300 300 301 305 307 311 314 314 314 316 315 316 319 324 328 331 328 313 303 288 276 266 261 257 255 248 240 237 236 234 235
299 289 286 296 301 304 304 299 298 300 300 298 298 300 300 301 305 306 308 311 312 314 316 318 321 324 327 331 335 322 310 291 276 264 258 251 248 244 240 235 235 234 233
310 294 290 292 294 301 307 303 299 298 299 298 301 300 300 300 303 306 308 309 309 310 315 316 319 322 324 330 334 327 310 297 279 262 252 247 244 242 239 237 235 233 234
313 307 304 298 294 301 305 305 300 301 300 298 299 300 299 298 302 304 304 306 309 312 313 313 316 318 323 332 335 329 302 297 285 267 250 244 242 241 236 234 235 234 236
313 306 303 301 300 302 297 300 303 303 297 298 302 301 301 299 301 301 301 303 306 311 310 311 313 317 322 326 333 324 298 291 287 272 253 245 241 238 235 234 233 232 234
316 301 298 298 298 298 295 297 300 302 304 300 304 304 305 304 303 304 303 303 303 306 310 311 313 313 318 322 332 318 295 285 281 272 260 246 241 237 235 236 234 230 229
321 312 304 300 298 296 296 296 296 298 300 300 296 299 303 304 302 304 304 302 301 303 306 309 311 313 317 321 327 311 292 284 276 268 258 248 241 238 238 236 234 230 230
327 320 313 306 301 298 296 296 297 297 294 294 295 297 299 297 297 299 300 301 300 298 302 304 306 309 314 317 319 307 292 280 271 260 255 253 248 243 240 237 233 230 229
330 325 319 313 308 303 298 295 294 294 293 292 293 292 294 294 293 293 294 296 296 296 297 299 299 304 307 310 311 301 291 280 274 261 257 257 253 247 242 237 234 230 229
328 323 318 314 310 304 300 297 294 292 290 289 290 290 290 288 288 289 290 291 293 294 297 296 298 299 302 305 305 298 288 281 274 267 261 261 255 249 243 238 232 227 227
333 328 322 316 312 308 304 300 298 296 293 290 288 286 285 284 284 286 287 288 288 289 291 293 293 295 296 296 294 293 288 281 272 265 261 258 253 248 243 239 235 232 228
335 332 329 324 316 310 306 303 301 299 296 294 291 289 287 284 281 280 283 284 284 285 287 289 289 290 290 288 283 282 281 277 269 262 258 257 253 248 244 241 236 233 229
340 337 333 330 325 320 313 307 304 302 299 296 293 291 289 288 286 281 280 280 280 281 283 285 286 285 287 287 280 277 276 276 266 258 256 254 252 247 242 238 232 231 228